Kaneohe, HI

9:06 PM HST on July 26, 2016 (GMT -1000)
Kaneohe Bay Marine Corps Air Facility

Weather History for PHNG - November, 2013

Change the Weather History Date:

Saturday, November 9, 2013

  Actual Average Record
Temperature  
Mean Temperature 78 °F -  
Max Temperature 82 °F 79 °F 86 °F (2002)
Min Temperature 73 °F 70 °F 66 °F (2014)
Cooling Degree Days 12    
Growing Degree Days 28 (Base 50)    
Moisture  
Dew Point 70 °F    
Average Humidity 75    
Maximum Humidity 88    
Minimum Humidity 57    
Precipitation  
Precipitation 0.00 in - - ()
Sea Level Pressure  
Sea Level Pressure 29.90 in    
Wind  
Wind Speed 8 mph (ENE)    
Max Wind Speed 21 mph    
Max Gust Speed 30 mph    
Visibility 5 miles    
Events Rain    
Averages and records for this station are not official NWS values.
T = Trace of Precipitation, MM = Missing Value Source: NWS Daily Summary

Daily Weather History Graph

Daily Weather History Graph

Search for Another Location

Airport or City:

Trip Planner

Search our weather history database for the weather conditions in past years. The results will help you decide how hot, cold, wet, or windy it might be!

Date:

Astronomy

Nov. 09, 2013 Rise Set
Actual Time 6:38 AM HST 5:50 PM HST
Civil Twilight 6:15 AM HST 6:14 PM HST
Nautical Twilight 5:48 AM HST 6:40 PM HST
Astronomical Twilight 5:22 AM HST 7:07 PM HST
Moon 12:31 PM HST (11/9) No Moon Set
Length of Visible Light 11h 58m
Length of Day
11h 12m
Waxing Crescent, 46% of the Moon is Illuminated
Nov 9
Waxing Crescent
Nov 9
First Quarter
Nov 17
Full
Nov 25
Last Quarter
Dec 2
New

Hourly Weather History & Observations

Time (HST) Temp. Heat Index Dew Point Humidity Pressure Visibility Wind Dir Wind Speed Gust Speed Precip Events Conditions
12:07 AM 75.2 °F - 69.8 °F 83% 29.94 in 6.2 mi Variable 6.9 mph - N/A   Scattered Clouds
12:57 AM 75.2 °F - 69.1 °F 81% 29.91 in 8.0 mi Variable 3.5 mph - N/A   Partly Cloudy
1:30 AM 75.2 °F - 68.0 °F 78% 29.93 in 6.2 mi East 4.6 mph - N/A   Mostly Cloudy
1:57 AM 75.2 °F - 68.0 °F 78% 29.90 in 8.0 mi ENE 6.9 mph - N/A   Mostly Cloudy
2:57 AM 73.4 °F - 66.9 °F 80% 29.89 in 8.0 mi East 3.5 mph - N/A   Scattered Clouds
3:57 AM 75.2 °F - 68.0 °F 78% 29.88 in 6.0 mi East 6.9 mph - N/A   Haze
4:57 AM - - - N/A% 29.89 in 6.0 mi ENE 4.6 mph - N/A   Haze
5:57 AM 75.2 °F - 68.0 °F 78% 29.90 in 7.0 mi East 3.5 mph - N/A   Overcast
6:46 AM 75.2 °F - 68.0 °F 78% 29.92 in 6.0 mi NE 10.4 mph - N/A   Haze
6:57 AM 75.2 °F - 68.0 °F 78% 29.91 in 7.0 mi NE 12.7 mph 20.7 mph N/A   Mostly Cloudy
7:06 AM 75.2 °F - 68.0 °F 78% 29.93 in 6.2 mi ENE 9.2 mph 17.3 mph N/A Rain Light Rain
7:22 AM 75.2 °F - 68.0 °F 78% 29.94 in 6.2 mi NE 6.9 mph - N/A Rain Light Rain
7:57 AM 75.2 °F - 68.0 °F 78% 29.93 in 7.0 mi NE 13.8 mph 19.6 mph N/A   Overcast
8:57 AM 77.0 °F - 68.0 °F 74% 29.94 in 7.0 mi ENE 5.8 mph - N/A   Overcast
9:57 AM 78.8 °F - 70.0 °F 74% 29.94 in 7.0 mi NNE 9.2 mph - N/A   Overcast
10:38 AM 80.6 °F 83.9 °F 69.8 °F 70% 29.94 in 6.2 mi ENE 8.1 mph - N/A   Overcast
10:57 AM 80.6 °F 83.9 °F 70.0 °F 70% 29.91 in 7.0 mi NE 10.4 mph 16.1 mph N/A   Overcast
11:04 AM 82.4 °F 87.2 °F 71.6 °F 70% 29.93 in - NE 11.5 mph - N/A Rain Light Rain
11:17 AM 82.4 °F 87.2 °F 71.6 °F 70% 29.92 in - NE 10.4 mph - N/A Rain Light Rain
11:34 AM 82.4 °F 87.2 °F 71.6 °F 70% 29.91 in 6.2 mi ENE 10.4 mph 19.6 mph N/A   Overcast
11:57 AM 82.4 °F 86.7 °F 71.1 °F 68% 29.89 in 8.0 mi ENE 10.4 mph 16.1 mph N/A   Overcast
12:57 PM 82.4 °F 85.8 °F 69.1 °F 64% 29.87 in 1.8 mi East 10.4 mph 17.3 mph N/A Rain Light Rain
1:24 PM 82.4 °F 84.6 °F 66.2 °F 58% 29.87 in 0.8 mi Variable 3.5 mph - N/A Rain Rain
1:33 PM 82.4 °F 84.6 °F 66.2 °F 58% 29.87 in - SE 5.8 mph - N/A Rain Rain
1:57 PM 82.4 °F 84.4 °F 66.0 °F 57% 29.84 in 5.0 mi East 3.5 mph - N/A Rain Light Rain
2:07 PM - - - N/A% 29.85 in - North 4.6 mph - N/A Rain Light Rain
2:15 PM 82.4 °F 86.3 °F 69.8 °F 66% 29.86 in 5.0 mi NE 11.5 mph 19.6 mph N/A Rain Light Rain
2:26 PM 82.4 °F 86.3 °F 69.8 °F 66% 29.85 in 5.0 mi Calm Calm - N/A Rain Light Rain
2:57 PM 82.4 °F 86.3 °F 70.0 °F 66% 29.84 in 5.0 mi NE 12.7 mph 19.6 mph N/A Rain Light Rain
3:04 PM - - - N/A% 29.86 in 1.8 mi NE 11.5 mph - N/A Rain Light Rain
3:27 PM - - - N/A% 29.86 in - East 9.2 mph 20.7 mph N/A Rain Light Rain
3:34 PM - - - N/A% 29.86 in - Variable 5.8 mph - N/A Rain Light Rain
3:48 PM - - - N/A% 29.86 in 1.0 mi ENE 4.6 mph - N/A Rain Light Rain
3:55 PM 80.6 °F 85.4 °F 73.4 °F 79% 29.86 in 1.2 mi ENE 4.6 mph - N/A Rain Light Rain
3:57 PM 80.6 °F 85.2 °F 73.0 °F 78% 29.85 in 5.0 mi NE 9.2 mph - N/A Rain Light Rain
4:31 PM 80.6 °F 85.4 °F 73.4 °F 79% 29.86 in 5.0 mi ENE 12.7 mph 19.6 mph N/A Rain Light Rain
4:57 PM 80.6 °F 85.2 °F 73.0 °F 78% 29.86 in 5.0 mi ESE 6.9 mph - N/A Rain Light Rain
4:59 PM - - - N/A% 29.87 in 5.0 mi ESE 5.8 mph - N/A Rain Light Rain
5:13 PM 80.6 °F 84.6 °F 71.6 °F 74% 29.88 in 5.0 mi ENE 6.9 mph - N/A Rain Rain
5:31 PM 80.6 °F 84.6 °F 71.6 °F 74% 29.88 in 5.0 mi East 3.5 mph - N/A Rain Light Rain
5:57 PM 80.6 °F 84.4 °F 71.1 °F 73% 29.87 in 5.0 mi East 11.5 mph 17.3 mph N/A Rain Light Rain
6:57 PM 80.6 °F 84.4 °F 71.1 °F 73% 29.87 in 6.0 mi East 9.2 mph - N/A Rain Light Rain
7:57 PM 78.8 °F - 72.0 °F 79% 29.89 in 5.0 mi East 4.6 mph - N/A Rain Light Rain
8:57 PM 77.0 °F - 73.0 °F 88% 29.90 in 7.0 mi East 4.6 mph - N/A   Mostly Cloudy
9:46 PM 77.0 °F - 71.6 °F 83% 29.92 in 5.0 mi NE 19.6 mph 29.9 mph N/A Rain Light Rain
9:53 PM 77.0 °F - 71.6 °F 83% 29.92 in 4.0 mi NE 19.6 mph 29.9 mph N/A Rain Light Rain
9:57 PM 77.0 °F - 71.1 °F 82% 29.90 in 3.0 mi NE 18.4 mph 28.8 mph N/A Rain Light Rain
10:03 PM 77.0 °F - 69.8 °F 78% 29.92 in 2.5 mi NE 18.4 mph 28.8 mph N/A Rain Light Rain
10:16 PM 77.0 °F - 69.8 °F 78% 29.92 in - NNE 17.3 mph 29.9 mph N/A Rain Light Rain
10:25 PM 77.0 °F - 69.8 °F 78% 29.92 in 2.5 mi NE 17.3 mph 25.3 mph N/A Rain Light Rain
10:34 PM 77.0 °F - 69.8 °F 78% 29.92 in 1.5 mi NE 19.6 mph 29.9 mph N/A Rain Light Rain
10:36 PM 77.0 °F - 69.8 °F 78% 29.92 in 0.8 mi NE 20.7 mph 29.9 mph N/A Rain Heavy Rain
10:44 PM 77.0 °F - 69.8 °F 78% 29.92 in - NNE 17.3 mph 26.5 mph N/A Rain Heavy Rain
10:57 PM 77.0 °F - 69.1 °F 76% 29.91 in 3.0 mi NE 18.4 mph 27.6 mph N/A Rain Heavy Rain
11:04 PM 77.0 °F - 69.8 °F 78% 29.93 in 0.8 mi NE 16.1 mph 27.6 mph N/A Rain Heavy Rain
11:26 PM 77.0 °F - 69.8 °F 78% 29.93 in 1.0 mi NE 15.0 mph 20.7 mph N/A Rain Rain
11:57 PM 77.0 °F - 69.1 °F 76% 29.91 in 1.5 mi NE 12.7 mph 19.6 mph N/A Rain Rain